Regional Weather Roundup
Issued by NWS

Home | Current Version | Previous Version | Graphics & Text | Print | Product List | Glossary Off
Versions: 1 2 3 4 5 6 7 8 9 10 11 12 13 14 15 16 17 18 19 20 21 22 23 24 25 26 27 28 29 30 31 32 33 34 35 36 37 38 39 40 41 42 43 44 45 46 47 48 49 50

000
ASUS43 KDMX 100303
RWRIA

WEATHER ROUNDUP FOR IOWA
NATIONAL WEATHER SERVICE DES MOINES IA
900 PM CST TUE FEB 09 2016

NOTE: "FAIR" INDICATES FEW OR NO CLOUDS BELOW 12,000 FEET WITH NO
SIGNIFICANT WEATHER AND/OR OBSTRUCTIONS TO VISIBILITY.

* - THESE STATIONS ARE NOT NWS STATIONS...THUS NOT UNDER NWS
QUALITY CONTROL.  THEY ALSO DO NOT REPORT WEATHER SUCH
AS PRECIPITATION OR FOG.

IAZ001>003-012>014-020>022-031>034-043>046-100400-
   NORTHWEST IOWA

CITY           SKY/WX    TMP DP  RH WIND       PRES   REMARKS
CARROLL *      CLOUDY    19  12  73 NW16      30.18F WCI   5
CHEROKEE *     CLOUDY    20  13  72 NW6       30.19S WCI  13
DENISON *      CLOUDY    18  10  73 W7        30.19S WCI   8
LE MARS *      CLOUDY    21  16  79 CALM      30.21F
ORANGE CITY *  CLOUDY    19  12  73 NW5       30.17F WCI  13
SHELDON *      CLOUDY    19  14  79 W8        30.16F WCI   9
SIOUX CITY     CLOUDY    23  16  74 CALM      30.21F
SPENCER        CLOUDY    18  10  71 NW12      30.16F WCI   5
STORM LAKE *   CLOUDY    19  14  79 NW14      30.17F WCI   6
$$

IAZ055>058-069>071-079>083-090>094-100400-
   SOUTHWEST IOWA

CITY           SKY/WX    TMP DP  RH WIND       PRES   REMARKS
ATLANTIC *     CLOUDY    19  12  73 NW13      30.22S WCI   7
AUDUBON *      CLOUDY    19  12  73 W8        30.19F WCI   9
CLARINDA *     CLOUDY    19  12  73 W10       30.26S WCI   8
COUNCIL BLFS * CLOUDY    23  14  68 W7        30.24S WCI  15
CRESTON *      CLEAR     16  10  79 NW10      30.19S WCI   3
HARLAN  *      CLOUDY    16  10  79 W13       30.25S WCI   2
LAMONI         CLEAR     17   9  70 NW13      30.18S WCI   4
RED OAK *      CLOUDY    19  14  79 NW7       30.25S WCI  10
SHENANDOAH *   CLOUDY    23  16  74 W9        30.27S WCI  13
$$

IAZ047>049-059>061-072>074-084-100400-
   CENTRAL IOWA

CITY           SKY/WX    TMP DP  RH WIND       PRES   REMARKS
AMES           CLEAR     14   6  70 NW15      30.17F WCI  -1
ANKENY *       CLEAR     16   7  67 NW10G17   30.19R WCI   3
BOONE *        CLEAR     16   5  62 NW18      30.15S WCI  -1
CHARITON *     PTCLDY    16   9  73 NW15G21   30.16S WCI   1
DES MOINES     CLEAR     16   7  67 NW9       30.18S WCI   4
GRINNELL*      CLEAR     12   9  85 NW16      30.14S WCI  -4
KNOXVILLE *    PTCLDY    16   5  62 NW15G23   30.15S WCI   1
MARSHALLTOWN   CLEAR     11   5  77 NW14      30.14R WCI  -5
NEWTON *       FLURRIES  14   7  73 NW17      30.15S WCI  -3
PELLA *        CLEAR     15   8  73 NW16      30.18S WCI  -1
$$

IAZ004>006-015-016-023>025-035-036-100400-
   NORTH CENTRAL IOWA

CITY           SKY/WX    TMP DP  RH WIND       PRES   REMARKS
ALGONA *       CLEAR     10   7  85 NW9       30.14S WCI  -2
CLARION *      CLEAR     10   3  72 NW14      30.14S WCI  -5
ESTHERVILLE    CLOUDY    15   9  76 NW17      30.14F WCI  -1
FORT DODGE *   CLEAR     10   1  67 NW3       30.17S
MASON CITY     CLEAR      7   0  73 NW13      30.13S WCI  -9
FOREST CITY *    N/A     10   5  79 NW12      30.12S WCI  -4
WEBSTER CITY * CLEAR     12   5  73 NW17G24   30.14S WCI  -5
IOWA FALLS *     N/A     12   7  79 NW15      30.14S WCI  -4
$$

IAZ007>011-017>019-026>030-037>042-050>054-066-100400-
   NORTHEAST IOWA

CITY           SKY/WX    TMP DP  RH WIND       PRES   REMARKS
CEDAR RAPIDS   CLEAR     10   4  76 NW14      30.10R WCI  -6
CHARLES CITY * CLEAR      9   0  66 NW15      30.10S WCI  -8
CLINTON *      CLEAR     10   5  80 W10       30.06R WCI  -4
DECORAH *      CLEAR      9  -4  56 NW6       30.06R WCI  -1
DUBUQUE        CLEAR     10   1  67 NW13      30.03R WCI  -5
MONTICELLO *   CLEAR     10   1  67 NW16      30.08R WCI  -7
OELWEIN *      CLEAR      9   0  66 NW20      30.09R WCI -11
WATERLOO       CLEAR     10   0  63 NW14      30.12R WCI  -6
$$

IAZ064-065-067-068-078-100400-
   EAST CENTRAL IOWA

CITY           SKY/WX    TMP DP  RH WIND       PRES   REMARKS
DAVENPORT      CLEAR     12   3  67 NW17      30.07S WCI  -5
IOWA CITY      CLEAR     13   4  67 NW10      30.14R WCI   0
MT. PLEASANT * CLEAR     16   8  69 NW14G21   30.13S WCI   2
MUSCATINE *    CLEAR     14   5  67 NW15      30.12S WCI  -1
QUAD CITIES    CLEAR     13   3  64 NW12G21   30.08S WCI  -1
$$

IAZ062-063-075>077-085>089-095>099-100400-
   SOUTHEAST IOWA

CITY           SKY/WX    TMP DP  RH WIND       PRES   REMARKS
BURLINGTON     CLEAR     13   5  70 NW14G21   30.11S WCI  -2
FAIRFIELD *    MOCLDY    14   5  67 NW15G22   30.14R WCI  -1
FORT MADISON * CLOUDY    12   7  79 NW17G24   30.13R WCI  -5
KEOKUK *       CLOUDY    16   7  67 NW12G24   30.14R WCI   3
OSKALOOSA *      N/A     14   9  79 NW20G26   30.15S WCI  -3
OTTUMWA        MOCLDY    15   7  70 NW17      30.15S WCI  -1
WASHINGTON *   CLEAR     12   5  73 NW18G24   30.14R WCI  -5
$$

ABBREVIATIONS USED IN REMARKS
   TC - TEMPERATURES IN CELSIUS
  WCI - WIND CHILL INDEX
   HX - HEAT INDEX
  VSB - VISIBILITY
$$




USA.gov is the U.S. government's official web portal to all federal, state and local government web resources and services.